FW6649 Weather Reports


Display with metric or nautical units.
time (UTC)temp
F
wind
direction
speed
MPH
gust
MPH
rain 1hr
in
rain 24hr
in
rain mn
in
humidity
%
barometer
mb
20260508020037 51 0 0.0 0.0 0.00 0.00 0.00 92 1011.9
20260508014538 52 0 0.0 0.0 0.00 0.00 0.00 92 1011.5
20260508013037 52 0 0.0 0.0 0.00 0.00 0.00 92 1011.4
20260508011535 53 0 0.0 0.0 0.00 0.00 0.00 90 1011.4
20260508010035 54 0 0.0 0.0 0.00 0.00 0.00 90 1011.3
20260508004538 55 0 0.0 0.0 0.00 0.00 0.00 89 1011.6
20260508003037 55 0 0.0 0.0 0.00 0.00 0.00 88 1011.3
20260508001534 56 0 0.0 0.0 0.00 0.00 0.00 86 1011.2
20260508000037 57 0 0.0 0.0 0.00 0.00 0.00 86 1010.7
20260507234542 57 0 0.0 0.0 0.00 0.00 0.00 84 1010.4
20260507233038 57 0 0.0 2.0 0.00 0.00 0.00 85 1010.4
20260507231537 57 0 0.0 3.0 0.00 0.00 0.00 87 1010.2
20260507230037 56 0 1.0 4.0 0.00 0.00 0.00 87 1009.9
20260507224535 56 0 0.0 3.0 0.00 0.00 0.00 87 1009.8
20260507223039 56 350 1.0 4.0 0.00 0.00 0.00 86 1010.2
20260507221538 56 326 1.0 4.0 0.00 0.00 0.00 86 1010.1
20260507220040 56 333 2.0 4.0 0.00 0.00 0.00 86 1010.1
20260507214537 56 0 0.0 2.0 0.00 0.00 0.00 87 1010.0
20260507213040 56 0 0.0 3.0 0.00 0.00 0.00 87 1010.0
20260507211532 55 350 1.0 5.0 0.00 0.00 0.00 89 1010.1
20260507210035 55 0 0.0 3.0 0.00 0.00 0.00 91 1009.8
20260507204539 55 58 1.0 4.0 0.00 0.00 0.00 91 1009.8
20260507203037 54 36 2.0 5.0 0.00 0.00 0.00 91 1010.1
20260507201538 54 355 2.0 5.0 0.00 0.00 0.00 92 1010.1
20260507200043 54 360 1.0 5.0 0.00 0.00 0.00 93 1010.3
20260507194542 54 355 2.0 5.0 0.00 0.00 0.00 92 1010.6
20260507193033 54 0 2.0 8.0 0.00 0.00 0.00 92 1010.3
20260507191535 54 22 2.0 5.0 0.00 0.00 0.00 92 1010.4
20260507190038 55 22 3.0 6.0 0.00 0.00 0.00 91 1010.5
20260507184537 55 19 1.0 5.0 0.00 0.00 0.00 90 1010.6
20260507183043 55 0 2.0 6.0 0.00 0.00 0.00 90 1010.5
20260507181538 55 24 1.0 4.0 0.00 0.00 0.00 89 1010.6
20260507180033 55 355 1.0 6.0 0.00 0.00 0.00 89 1010.6
20260507174535 55 329 1.0 9.0 0.00 0.00 0.00 89 1010.4
20260507173034 55 319 3.0 6.0 0.00 0.00 0.00 90 1010.4
20260507171537 55 16 3.0 7.0 0.00 0.00 0.00 90 1010.2
20260507170037 55 352 2.0 9.0 0.00 0.00 0.00 90 1010.2
20260507164534 55 22 3.0 7.0 0.00 0.00 0.00 89 1010.6
20260507163039 55 57 2.0 11.0 0.00 0.00 0.00 89 1010.9
20260507161540 55 66 3.0 8.0 0.00 0.00 0.00 90 1010.6
20260507160038 55 24 1.0 8.0 0.00 0.00 0.00 92 1010.8
20260507154536 55 5 2.0 8.0 0.00 0.00 0.00 91 1010.8
20260507153038 56 55 3.0 11.0 0.00 0.00 0.00 89 1010.8
20260507151535 58 67 3.0 10.0 0.00 0.00 0.00 88 1010.9
20260507150037 60 344 2.0 11.0 0.00 0.00 0.00 90 1010.6
20260507144538 62 333 4.0 10.0 0.00 0.00 0.00 90 1009.9
20260507143056 62 340 3.0 9.0 0.00 0.00 0.00 90 1009.4
20260507141554 62 317 2.0 11.0 0.00 0.00 0.00 91 1009.6
20260507140036 63 325 7.0 11.0 0.00 0.00 0.00 92 1009.8
20260507134535 63 321 4.0 8.0 0.00 0.00 0.00 94 1009.5
20260507133041 63 17 1.0 3.0 0.00 0.00 0.00 95 1009.6
20260507131541 62 0 0.0 2.0 0.00 0.00 0.00 95 1010.2
20260507130042 63 360 1.0 4.0 0.00 0.00 0.00 96 1010.5
20260507124538 63 316 2.0 4.0 0.00 0.00 0.00 96 1010.3
20260507123039 63 333 0.0 4.0 0.00 0.00 0.00 96 1010.0
20260507121539 63 324 4.0 7.0 0.00 0.00 0.00 96 1010.1
20260507120033 63 355 1.0 2.0 0.00 0.00 0.00 96 1009.9
20260507114537 63 0 0.0 0.0 0.00 0.00 0.00 96 1009.9
20260507113036 63 0 0.0 1.0 0.00 0.00 0.00 96 1009.7
20260507111538 62 0 0.0 0.0 0.00 0.00 0.00 96 1009.7
20260507110037 62 0 0.0 0.0 0.00 0.00 0.00 96 1010.0
20260507104536 62 0 0.0 0.0 0.00 0.00 0.00 96 1009.6
20260507103036 62 0 0.0 2.0 0.00 0.00 0.00 96 1009.5
20260507101534 62 0 0.0 3.0 0.00 0.00 0.00 96 1009.4
20260507100051 62 100 1.0 4.0 0.00 0.00 0.00 95 1008.6
20260507094537 63 129 0.0 3.0 0.00 0.00 0.00 95 1009.4
20260507093036 63 0 0.0 0.0 0.00 0.00 0.00 95 1009.6
20260507091538 63 0 0.0 0.0 0.00 0.00 0.00 95 1009.9
20260507090040 63 0 0.0 2.0 0.00 0.00 0.00 95 1009.4
20260507084547 63 152 0.0 2.0 0.00 0.00 0.00 95 1009.6
20260507083039 63 150 1.0 3.0 0.00 0.00 0.00 95 1009.6
20260507081541 63 0 0.0 3.0 0.00 0.00 0.00 94 1009.4
20260507080036 63 255 2.0 5.0 0.00 0.00 0.00 94 1009.2
20260507074540 63 227 2.0 4.0 0.00 0.00 0.00 94 1009.5
20260507073039 64 237 2.0 4.0 0.00 0.00 0.00 94 1009.4
20260507071538 64 213 3.0 7.0 0.00 0.00 0.00 94 1009.2
20260507070043 64 153 5.0 12.0 0.00 0.00 0.00 94 1009.1
20260507064600 64 170 4.0 7.0 0.00 0.00 0.00 93 1009.1
20260507063037 64 192 3.0 5.0 0.00 0.00 0.00 94 1009.8
20260507061532 65 184 3.0 7.0 0.00 0.00 0.00 94 1010.4
20260507060054 65 202 2.0 6.0 0.00 0.00 0.00 93 1010.5
20260507054545 65 186 3.0 8.0 0.00 0.00 0.00 94 1010.7
20260507053039 65 202 5.0 10.0 0.00 0.00 0.00 94 1011.1
20260507051547 65 173 4.0 9.0 0.00 0.00 0.00 95 1011.4
20260507050044 65 173 2.0 6.0 0.00 0.00 0.00 94 1011.3
20260507044532 65 209 1.0 4.0 0.00 0.00 0.00 94 1011.4
20260507043034 65 0 0.0 4.0 0.00 0.00 0.00 93 1011.4
20260507041539 66 111 0.0 5.0 0.00 0.00 0.00 93 1010.9
20260507040037 66 142 1.0 4.0 0.00 0.00 0.00 92 1011.1
20260507034538 66 175 1.0 5.0 0.00 0.00 0.00 91 1012.2
20260507033035 66 164 1.0 5.0 0.00 0.00 0.00 89 1012.1
20260507031535 67 189 2.0 5.0 0.00 0.00 0.00 88 1012.0
20260507030037 67 0 1.0 2.0 0.00 0.00 0.00 87 1011.4
20260507024538 68 0 0.0 0.0 0.00 0.00 0.00 85 1011.4
20260507023042 68 0 0.0 4.0 0.00 0.00 0.00 84 1011.5
20260507021541 68 241 2.0 4.0 0.00 0.00 0.00 83 1011.4